Voltar ao catálogo

DIAMANT B-P4 DEB

AtivoLEO
NORAD 7659·DEBRIS·🇫🇷 France

Lançado Feb 6, 1975 de Guiana Space Centre

Loading…

Próximas Passagens (próximas 24 horas)

TLE

AtualizadoSource: Space-Track

Época: Sep 14, 2026, 13:14 UTC

1 07659U 75010E   26257.55168843  .00000008  00000-0  99767-4 0  9992
2 07659  49.8147  87.6153 0184683 275.3915  82.5939 13.94130783617812

Acompanhe DIAMANT B-P4 DEB em tempo real com AllMySat

Download on the App Store